TimePDT,TemperatureF,Dew PointF,Humidity,Sea Level PressureIn,VisibilityMPH,Wind Direction,Wind SpeedMPH,Gust SpeedMPH,PrecipitationIn,Events,Conditions,WindDirDegrees,DateUTC
12:15 AM,50.0,46.4,87,30.24,10.0,Calm,Calm,-,N/A,,Clear,0,2013-05-14 07:15:00
12:35 AM,50.0,46.4,87,30.25,10.0,Calm,Calm,-,N/A,,Clear,0,2013-05-14 07:35:00
12:55 AM,48.2,44.6,87,30.24,10.0,Calm,Calm,-,N/A,,Clear,0,2013-05-14 07:55:00
1:15 AM,48.2,44.6,87,30.25,10.0,Calm,Calm,-,N/A,,Clear,0,2013-05-14 08:15:00
1:35 AM,48.2,44.6,87,30.25,10.0,West,3.5,-,N/A,,Clear,280,2013-05-14 08:35:00
1:55 AM,46.4,42.8,87,30.24,10.0,Calm,Calm,-,N/A,,Clear,0,2013-05-14 08:55:00
2:15 AM,44.6,42.8,93,30.23,10.0,Calm,Calm,-,N/A,,Clear,0,2013-05-14 09:15:00
2:35 AM,44.6,42.8,93,30.23,10.0,WSW,3.5,-,N/A,,Clear,240,2013-05-14 09:35:00
2:55 AM,42.8,41.0,93,30.23,10.0,West,4.6,-,N/A,,Clear,280,2013-05-14 09:55:00
3:15 AM,42.8,42.8,100,30.23,10.0,West,3.5,-,N/A,,Scattered Clouds,270,2013-05-14 10:15:00
3:35 AM,44.6,42.8,93,30.23,10.0,Calm,Calm,-,N/A,,Partly Cloudy,0,2013-05-14 10:35:00
3:55 AM,44.6,42.8,93,30.23,10.0,Calm,Calm,-,N/A,,Clear,0,2013-05-14 10:55:00
4:15 AM,42.8,41.0,93,30.22,10.0,Calm,Calm,-,N/A,,Clear,0,2013-05-14 11:15:00
4:35 AM,41.0,39.2,93,30.23,8.0,WSW,4.6,-,N/A,,Clear,250,2013-05-14 11:35:00
4:55 AM,41.0,39.2,93,30.23,10.0,Calm,Calm,-,N/A,,Mostly Cloudy,0,2013-05-14 11:55:00
5:15 AM,42.8,41.0,93,30.23,10.0,West,4.6,-,N/A,,Overcast,280,2013-05-14 12:15:00
5:35 AM,42.8,42.8,100,30.23,10.0,West,4.6,-,N/A,,Overcast,270,2013-05-14 12:35:00
5:55 AM,42.8,41.0,93,30.23,10.0,West,3.5,-,N/A,,Scattered Clouds,270,2013-05-14 12:55:00
6:15 AM,42.8,41.0,93,30.23,10.0,West,5.8,-,N/A,,Clear,280,2013-05-14 13:15:00
6:35 AM,42.8,42.8,100,30.23,10.0,West,4.6,-,N/A,,Clear,270,2013-05-14 13:35:00
6:55 AM,44.6,42.8,93,30.23,10.0,West,6.9,-,N/A,,Clear,280,2013-05-14 13:55:00
7:15 AM,44.6,44.6,100,30.23,10.0,West,6.9,-,N/A,,Clear,280,2013-05-14 14:15:00
7:35 AM,46.4,44.6,93,30.23,10.0,NW,3.5,-,N/A,,Clear,310,2013-05-14 14:35:00
7:55 AM,50.0,44.6,82,30.23,10.0,Calm,Calm,-,N/A,,Clear,0,2013-05-14 14:55:00
8:15 AM,51.8,44.6,76,30.23,10.0,Calm,Calm,-,N/A,,Clear,0,2013-05-14 15:15:00
8:35 AM,53.6,44.6,72,30.23,10.0,Calm,Calm,-,N/A,,Clear,0,2013-05-14 15:35:00
8:55 AM,55.4,44.6,67,30.23,10.0,Calm,Calm,-,N/A,,Clear,0,2013-05-14 15:55:00
9:15 AM,57.2,44.6,63,30.23,10.0,North,3.5,-,N/A,,Clear,360,2013-05-14 16:15:00
9:35 AM,57.2,44.6,63,30.23,10.0,NE,3.5,-,N/A,,Clear,40,2013-05-14 16:35:00
9:55 AM,59.0,44.6,59,30.23,10.0,NNE,3.5,-,N/A,,Clear,20,2013-05-14 16:55:00
10:15 AM,59.0,42.8,55,30.22,10.0,North,3.5,-,N/A,,Clear,360,2013-05-14 17:15:00
10:35 AM,60.8,42.8,52,30.22,10.0,Calm,Calm,-,N/A,,Clear,0,2013-05-14 17:35:00
10:55 AM,60.8,42.8,52,30.22,10.0,Calm,Calm,-,N/A,,Clear,0,2013-05-14 17:55:00
11:15 AM,62.6,41.0,45,30.22,10.0,WNW,3.5,-,N/A,,Partly Cloudy,300,2013-05-14 18:15:00
11:35 AM,62.6,42.8,48,30.21,10.0,NNE,8.1,-,N/A,,Clear,30,2013-05-14 18:35:00
11:55 AM,64.4,41.0,42,30.21,10.0,NE,4.6,-,N/A,,Clear,40,2013-05-14 18:55:00
12:15 PM,64.4,41.0,42,30.20,10.0,NNW,6.9,-,N/A,,Clear,330,2013-05-14 19:15:00
12:35 PM,64.4,35.6,34,30.20,10.0,Calm,Calm,-,N/A,,Clear,0,2013-05-14 19:35:00
12:55 PM,66.2,39.2,37,30.19,10.0,NE,5.8,-,N/A,,Clear,40,2013-05-14 19:55:00
1:15 PM,66.2,37.4,35,30.18,10.0,ENE,8.1,-,N/A,,Clear,60,2013-05-14 20:15:00
1:35 PM,66.2,37.4,35,30.17,10.0,Calm,Calm,-,N/A,,Clear,0,2013-05-14 20:35:00
1:55 PM,68.0,35.6,30,30.17,10.0,North,4.6,-,N/A,,Clear,10,2013-05-14 20:55:00
2:15 PM,66.2,37.4,35,30.17,10.0,NNE,5.8,-,N/A,,Clear,30,2013-05-14 21:15:00
2:35 PM,68.0,37.4,33,30.17,10.0,NNW,3.5,-,N/A,,Clear,340,2013-05-14 21:35:00
2:55 PM,66.2,37.4,35,30.16,10.0,ENE,6.9,-,N/A,,Clear,60,2013-05-14 21:55:00
3:15 PM,69.8,39.2,33,30.16,10.0,Calm,Calm,-,N/A,,Clear,0,2013-05-14 22:15:00
3:35 PM,71.6,39.2,31,30.15,10.0,Calm,Calm,-,N/A,,Clear,0,2013-05-14 22:35:00
3:55 PM,69.8,37.4,31,30.14,10.0,North,3.5,-,N/A,,Clear,350,2013-05-14 22:55:00
4:15 PM,69.8,37.4,31,30.13,10.0,West,3.5,-,N/A,,Clear,280,2013-05-14 23:15:00
4:35 PM,71.6,39.2,31,30.13,10.0,Calm,Calm,-,N/A,,Clear,0,2013-05-14 23:35:00
4:55 PM,71.6,39.2,31,30.13,10.0,North,3.5,-,N/A,,Clear,350,2013-05-14 23:55:00
5:15 PM,71.6,39.2,31,30.12,10.0,NE,6.9,-,N/A,,Clear,40,2013-05-15 00:15:00
5:35 PM,69.8,39.2,33,30.12,10.0,NNE,3.5,-,N/A,,Clear,30,2013-05-15 00:35:00
5:55 PM,71.6,37.4,29,30.12,10.0,NE,6.9,-,N/A,,Clear,40,2013-05-15 00:55:00
6:15 PM,71.6,39.2,31,30.12,10.0,ENE,4.6,-,N/A,,Clear,70,2013-05-15 01:15:00
6:35 PM,71.6,39.2,31,30.11,10.0,NNE,4.6,-,N/A,,Clear,30,2013-05-15 01:35:00
6:55 PM,66.2,42.8,43,30.12,10.0,WNW,10.4,-,N/A,,Clear,300,2013-05-15 01:55:00
7:15 PM,64.4,39.2,40,30.12,10.0,WNW,11.5,-,N/A,,Clear,290,2013-05-15 02:15:00
7:55 PM,60.8,37.4,42,30.13,10.0,West,11.5,17.3,N/A,,Clear,280,2013-05-15 02:55:00
8:15 PM,57.2,39.2,51,30.13,10.0,West,11.5,-,N/A,,Clear,280,2013-05-15 03:15:00
8:35 PM,57.2,39.2,51,30.14,10.0,West,10.4,-,N/A,,Clear,280,2013-05-15 03:35:00
8:55 PM,55.4,39.2,54,30.14,10.0,West,10.4,-,N/A,,Clear,280,2013-05-15 03:55:00
9:15 PM,53.6,39.2,58,30.14,10.0,West,11.5,-,N/A,,Clear,280,2013-05-15 04:15:00
9:35 PM,51.8,39.2,62,30.15,10.0,West,9.2,-,N/A,,Clear,270,2013-05-15 04:35:00
9:55 PM,51.8,39.2,62,30.15,10.0,West,10.4,-,N/A,,Clear,280,2013-05-15 04:55:00
10:15 PM,51.8,39.2,62,30.15,10.0,West,8.1,-,N/A,,Clear,270,2013-05-15 05:15:00
10:35 PM,51.8,39.2,62,30.15,10.0,West,8.1,-,N/A,,Clear,270,2013-05-15 05:35:00
10:55 PM,50.0,39.2,66,30.14,10.0,WNW,10.4,-,N/A,,Clear,290,2013-05-15 05:55:00
11:15 PM,51.8,37.4,58,30.14,10.0,West,9.2,-,N/A,,Clear,280,2013-05-15 06:15:00
11:35 PM,50.0,39.2,66,30.14,10.0,West,8.1,-,N/A,,Clear,270,2013-05-15 06:35:00
11:55 PM,48.2,39.2,71,30.13,10.0,WNW,9.2,-,N/A,,Clear,290,2013-05-15 06:55:00